[[{"header":{"parameterUnit":"m.s-1","parameterCategory":1,"la1":30.2991,"la2":30.254,"lo1":-89.0895,"lo2":-89.0444,"dy":0.0017,"dx":0.0017,"nx":28,"ny":28,"refTime":"2024-03-21T03:00:00:Z","depth":0,"parameterNumber":2,"parameterNumberName":"U-component_of_WINDS"},"data":[0,0,0,0,0,0,0,0,0,0,0,0,0,0,0,0,0,0,0,0,0,0,0,0,0,0,0,0,0,0,0,0,0,0,0,0,0,0,0,0,0,0,0,0,0,0,0,0,0,0,0,0,0,0,0,0,0,0,-3.8296,-3.8295,0,-3.8254,-3.8254,-3.8253,-3.8118,-3.8115,-3.8112,-3.8109,-3.8071,-3.8073,-3.8075,0,0,0,0,0,0,0,0,0,0,0,0,0,-3.8264,-3.8265,-3.8296,-3.8295,-3.8295,-3.8254,-3.8254,-3.8253,-3.8119,-3.8115,-3.8112,-3.8108,-3.807,-3.8073,-3.8075,0,0,0,0,0,0,0,0,0,0,0,0,0,-3.8256,-3.8266,-3.8296,-3.8223,-3.8216,-3.8254,-3.8254,-3.8253,-3.812,-3.8115,-3.8111,-3.8106,-3.807,-3.8072,-3.8075,-3.8182,0,0,-3.8083,-3.8084,0,0,0,0,0,0,0,0,-3.8257,-3.8257,-3.8234,-3.8228,-3.822,-3.8187,-3.8228,-3.8229,-3.8121,-3.8156,-3.8109,-3.8104,-3.8113,-3.8112,-3.8114,-3.818,-3.8178,-3.8083,-3.8085,-3.8086,-3.8087,0,0,0,0,0,0,0,-3.8257,-3.8258,-3.8279,-3.8234,-3.8226,-3.8194,-3.8188,-3.8228,-3.8161,-3.8153,-3.8143,-3.814,-3.8109,-3.8112,-3.8113,-3.8178,-3.8083,-3.8086,-3.8087,-3.8088,-3.833,-3.8334,0,0,0,0,0,0,-3.8268,-3.826,-3.8281,-3.8278,-3.8228,-3.8198,-3.8191,-3.8202,-3.816,-3.8149,-3.8144,-3.8134,-3.811,-3.811,-3.8111,-3.8232,-3.8086,-3.8089,-3.809,-3.8325,-3.8331,-3.8336,0,0,0,0,0,0,-3.8268,-3.8271,-3.8282,-3.8266,-3.8265,-3.8203,-3.8217,-3.8204,-3.8207,-3.8153,-3.8141,-3.8159,-3.8106,-3.8107,-3.8165,-3.8229,-3.809,-3.8092,-3.8319,-3.8327,-3.8333,-3.8477,0,0,0,0,0,0,-3.8267,-3.8272,-3.831,-3.8268,-3.8267,-3.8336,-3.8221,-3.8206,-3.8211,-3.8198,-3.8164,-3.8154,-3.8103,-3.8162,-3.8168,-3.823,-3.8094,-3.8313,-3.8323,-3.8331,-3.8466,-3.8488,-3.8507,0,0,0,0,0,-3.8267,-3.8353,-3.8313,-3.8316,-3.8314,-3.834,-3.8339,-3.8277,-3.8217,-3.8256,-3.8222,-3.8155,-3.8222,-3.8169,-3.8174,-3.8239,-3.8309,-3.832,-3.833,-3.8457,-3.8484,-3.8507,0,0,0,0,0,0,-3.8406,-3.8346,-3.8301,-3.8376,-3.8364,-3.8317,-3.8364,-3.8308,-3.8313,-3.83,-3.8224,-3.8218,-3.8287,-3.8269,-3.8211,-3.834,-3.8254,-3.8267,-3.8349,-3.8374,-3.8394,-3.8396,-3.8097,0,0,0,0,0,-3.8445,-3.8471,-3.8418,-3.849,-3.8486,-3.8427,-3.8436,-3.8389,-3.8374,-3.8369,-3.8338,-3.8328,-3.8346,-3.8359,-3.8373,-3.8464,-3.8455,-3.8511,-3.8532,-3.8549,-3.856,-3.8606,-3.8631,-3.8371,-3.8371,-3.8371,0,0,-3.8527,-3.8498,-3.8518,-3.8517,-3.8502,-3.8531,-3.8423,-3.8458,-3.8479,-3.8374,-3.8426,-3.8404,-3.8387,-3.8462,-3.8494,-3.8449,-3.863,-3.8563,-3.8577,-3.8578,-3.862,-3.8645,-3.8667,-3.8379,-3.8377,-3.8376,0,0,-3.869,-3.8671,-3.8728,-3.8715,-3.8694,-3.8654,-3.8668,-3.863,-3.8611,-3.8662,-3.8584,-3.8609,-3.8642,-3.8633,-3.8633,-3.8795,-3.8734,-3.8802,-3.8908,-3.8954,-3.8975,-3.8992,-3.9049,-3.9071,-3.8814,-3.8814,-3.8815,0,-3.8794,-3.8833,-3.8765,-3.8805,-3.8807,-3.8713,-3.8771,-3.8762,-3.8747,-3.8751,-3.8702,-3.8742,-3.8724,-3.8795,-3.8835,-3.8838,-3.8852,-3.8804,-3.8977,-3.8994,-3.901,-3.9063,-3.9085,-3.8823,-3.8822,-3.8821,-3.882,0,-3.8962,-3.8991,-3.904,-3.9026,-3.9034,-3.9083,-3.9024,-3.904,-3.8994,-3.896,-3.9014,-3.899,-3.8997,-3.9011,-3.8967,-3.9077,-3.905,-3.8991,-3.8902,-3.9044,-3.9092,-3.9112,-3.8834,-3.8831,-3.8829,-3.8827,0,0,-3.9209,-3.9158,-3.9177,-3.9169,-3.9139,-3.9161,-3.9207,-3.9212,-3.9228,-3.9222,-3.9258,-3.929,-3.9235,-3.9235,-3.9189,-3.923,-3.9359,-3.9165,-3.9164,-3.9201,-3.9478,-3.9521,-3.9546,-3.932,-3.9324,-3.9327,-3.9479,0,-3.9362,-3.9434,-3.9375,-3.9459,-3.9485,-3.9398,-3.9438,-3.9425,-3.9396,-3.9414,-3.9383,-3.9405,-3.9331,-3.9331,-3.9368,-3.9336,-3.9414,-3.9324,-3.9353,-3.9355,-3.9357,-3.9571,-3.9616,-3.9761,-3.9498,-3.9501,-3.9503,0,-3.9549,-3.9549,-3.9636,-3.9601,-3.9609,-3.9646,-3.9647,-3.9666,-3.9651,-3.9626,-3.9628,-3.9571,-3.9615,-3.9531,-3.9591,-3.9532,-3.9541,-3.9528,-3.9532,-3.953,-3.9436,-3.9573,-3.9806,-3.9827,-3.9533,-3.9531,-3.9528,0,-3.9717,-3.9741,-3.9795,-3.9792,-3.9753,-3.9781,-3.9766,-3.9746,-3.9754,-3.9756,-3.976,-3.9768,-3.9772,-3.9781,-3.9729,-3.9673,-3.9796,-3.9707,-3.9777,-3.9778,-3.9804,-3.9803,-4.0039,-3.9815,-3.9815,-3.9814,-3.9814,0,-3.9892,-3.9948,-3.987,-3.9903,-3.9964,-3.9897,-3.996,-3.9937,-3.992,-3.9948,-3.9875,-3.9904,-3.9834,-3.9857,-3.9817,-3.9872,-3.9876,-3.9858,-3.9846,-3.9862,-3.9864,-3.9865,-3.9853,-3.982,-3.9819,-3.9818,-3.9817,0,-4.0089,-4.0039,-4.0092,-4.0052,-4.0043,-4.009,-4.0055,-4.0085,-4.0052,-4.0089,-4.0094,-4.0042,-4.0064,-4.0014,-4.003,-4.0003,-4.0082,-4.0056,-4.0086,-4.0077,-4.0149,-4.0142,-4.0392,-4.0421,-4.0181,-4.0184,-4.0186,0,-4.0203,-4.0243,-4.0207,-4.022,-4.0209,-4.0231,-4.0238,-4.0176,-4.0187,-4.0173,-4.0205,-4.0221,-4.023,-4.027,-4.0235,-4.0247,-4.0219,-4.0306,-4.022,-4.0236,-4.0218,-4.0215,-4.0218,-4.0323,-4.0326,-4.0328,-4.033,0,-4.0409,-4.0382,-4.0394,-4.0399,-4.0409,-4.041,-4.0405,-4.0421,-4.0354,-4.0371,-4.0391,-4.0399,-4.0415,-4.0431,-4.0436,-4.0422,-4.0366,-4.0358,-4.0374,-4.039,-4.0405,-4.0396,-4.0131,-4.0352,-4.035,-4.0348,-4.0347,-4.0346,-4.0565,-4.0597,-4.0576,-4.0593,-4.0583,-4.0581,-4.0607,-4.0577,-4.0593,-4.0599,-4.0563,-4.0592,-4.0578,-4.0577,-4.057,-4.0593,-4.0554,-4.0578,-4.0584,-4.059,-4.0601,-4.0404,-4.0595,-4.0594,-4.0593,-4.0593,-4.0592,0,-4.0765,-4.0748,-4.0764,-4.0759,-4.0773,-4.0718,-4.0711,-4.0726,-4.0752,-4.0743,-4.0753,-4.0778,-4.0795,-4.0763,-4.0774,-4.0799,-4.0773,-4.0804,-4.08,-4.0798,-4.0636,-4.062,-4.0825,-4.0825,-4.0824,-4.0824,-4.0824,-4.0824,-4.087,-4.092,-4.0892,-4.0938,-4.0921,-4.0947,-4.0948,-4.0947,-4.0938,-4.0969,-4.0982,-4.096,-4.0942,-4.0952,-4.0966,-4.0956,-4.0962,-4.1002,-4.0983,-4.0832,-4.0809,-4.0787,-4.0771,-4.1005,-4.1005,-4.1142,-4.1143,-4.1144]},{"header":{"parameterUnit":"m.s-1","parameterCategory":1,"la1":30.2991,"la2":30.254,"lo1":-89.0895,"lo2":-89.0444,"dy":0.0017,"dx":0.0017,"nx":28,"ny":28,"refTime":"2024-03-21T03:00:00:Z","depth":0,"parameterNumber":3,"parameterNumberName":"V-component_of_WINDS"},"data":[0,0,0,0,0,0,0,0,0,0,0,0,0,0,0,0,0,0,0,0,0,0,0,0,0,0,0,0,0,0,0,0,0,0,0,0,0,0,0,0,0,0,0,0,0,0,0,0,0,0,0,0,0,0,0,0,0,0,-1.0516,-1.0516,0,-1.0521,-1.0521,-1.0521,-1.0533,-1.0533,-1.0534,-1.0534,-1.0538,-1.0537,-1.0537,0,0,0,0,0,0,0,0,0,0,0,0,0,-1.0516,-1.0516,-1.0516,-1.0516,-1.0516,-1.0521,-1.0521,-1.0521,-1.0533,-1.0533,-1.0534,-1.0534,-1.0538,-1.0537,-1.0537,0,0,0,0,0,0,0,0,0,0,0,0,0,-1.0518,-1.0516,-1.0516,-1.0523,-1.0523,-1.0521,-1.0521,-1.0521,-1.0533,-1.0533,-1.0534,-1.0534,-1.0538,-1.0537,-1.0537,-1.0528,0,0,-1.0537,-1.0536,0,0,0,0,0,0,0,0,-1.0518,-1.0518,-1.0522,-1.0522,-1.0523,-1.0527,-1.0522,-1.0523,-1.0533,-1.0529,-1.0534,-1.0534,-1.0534,-1.0534,-1.0534,-1.0528,-1.0528,-1.0536,-1.0536,-1.0536,-1.0536,0,0,0,0,0,0,0,-1.0518,-1.0518,-1.0518,-1.0522,-1.0523,-1.0525,-1.0526,-1.0522,-1.0529,-1.053,-1.0531,-1.0531,-1.0534,-1.0534,-1.0534,-1.0528,-1.0536,-1.0536,-1.0536,-1.0536,-1.0514,-1.0514,0,0,0,0,0,0,-1.0517,-1.0518,-1.0518,-1.0518,-1.0521,-1.0525,-1.0526,-1.0525,-1.0529,-1.053,-1.0531,-1.0532,-1.0534,-1.0534,-1.0534,-1.0523,-1.0536,-1.0536,-1.0536,-1.0514,-1.0514,-1.0513,0,0,0,0,0,0,-1.0517,-1.0517,-1.0517,-1.0518,-1.0518,-1.0524,-1.0524,-1.0525,-1.0525,-1.053,-1.0531,-1.0529,-1.0534,-1.0534,-1.0529,-1.0523,-1.0536,-1.0536,-1.0515,-1.0514,-1.0514,-1.05,0,0,0,0,0,0,-1.0517,-1.0517,-1.0513,-1.0518,-1.0518,-1.0513,-1.0523,-1.0525,-1.0525,-1.0526,-1.0529,-1.053,-1.0535,-1.0529,-1.0529,-1.0523,-1.0536,-1.0516,-1.0515,-1.0514,-1.0501,-1.0499,-1.0497,0,0,0,0,0,-1.0517,-1.0509,-1.0513,-1.0513,-1.0515,-1.0513,-1.0513,-1.0519,-1.0524,-1.0521,-1.0524,-1.053,-1.0524,-1.0529,-1.0528,-1.0522,-1.0516,-1.0515,-1.0514,-1.0502,-1.0499,-1.0497,0,0,0,0,0,0,-1.0504,-1.051,-1.0514,-1.0509,-1.051,-1.0515,-1.0511,-1.0516,-1.0516,-1.0517,-1.0524,-1.0524,-1.0518,-1.052,-1.0525,-1.0513,-1.0521,-1.052,-1.0512,-1.051,-1.0508,-1.0507,-1.0535,0,0,0,0,0,-1.05,-1.0499,-1.0504,-1.0498,-1.0499,-1.0505,-1.0504,-1.0508,-1.051,-1.051,-1.0513,-1.0514,-1.0512,-1.0511,-1.051,-1.0501,-1.0502,-1.0497,-1.0495,-1.0493,-1.0492,-1.0487,-1.0485,-1.051,-1.051,-1.051,0,0,-1.0493,-1.0496,-1.0495,-1.0496,-1.0497,-1.0495,-1.0505,-1.0502,-1.05,-1.051,-1.0505,-1.0507,-1.0509,-1.0502,-1.0499,-1.0503,-1.0485,-1.0492,-1.0491,-1.049,-1.0486,-1.0483,-1.0481,-1.0509,-1.051,-1.051,0,0,-1.0479,-1.0481,-1.0476,-1.0478,-1.048,-1.0484,-1.0483,-1.0486,-1.0488,-1.0483,-1.0491,-1.0488,-1.0485,-1.0486,-1.0485,-1.047,-1.0476,-1.047,-1.046,-1.0455,-1.0453,-1.0451,-1.0445,-1.0443,-1.0469,-1.0469,-1.0469,0,-1.0469,-1.0466,-1.0473,-1.047,-1.0469,-1.0478,-1.0473,-1.0474,-1.0476,-1.0475,-1.048,-1.0476,-1.0477,-1.047,-1.0466,-1.0466,-1.0465,-1.0469,-1.0452,-1.0451,-1.0449,-1.0443,-1.0441,-1.0468,-1.0468,-1.0468,-1.0468,0,-1.0454,-1.0452,-1.0448,-1.0449,-1.0448,-1.0444,-1.045,-1.0448,-1.0452,-1.0455,-1.045,-1.0452,-1.0451,-1.045,-1.0454,-1.0443,-1.0446,-1.0451,-1.0459,-1.0446,-1.0441,-1.0438,-1.0467,-1.0467,-1.0467,-1.0467,0,0,-1.0432,-1.0437,-1.0435,-1.0436,-1.0439,-1.0437,-1.0432,-1.0432,-1.043,-1.0431,-1.0427,-1.0424,-1.0429,-1.0428,-1.0433,-1.0428,-1.0415,-1.0434,-1.0434,-1.043,-1.0402,-1.0398,-1.0395,-1.0419,-1.0418,-1.0418,-1.0402,0,-1.0418,-1.0411,-1.0417,-1.0409,-1.0406,-1.0414,-1.041,-1.0411,-1.0414,-1.0412,-1.0415,-1.0412,-1.0419,-1.0419,-1.0415,-1.0418,-1.041,-1.0419,-1.0415,-1.0414,-1.0414,-1.0393,-1.0388,-1.0373,-1.04,-1.04,-1.04,0,-1.04,-1.04,-1.0392,-1.0395,-1.0394,-1.0391,-1.039,-1.0388,-1.0389,-1.0391,-1.0391,-1.0396,-1.0391,-1.0399,-1.0392,-1.0398,-1.0397,-1.0398,-1.0397,-1.0397,-1.0406,-1.0391,-1.0368,-1.0365,-1.0396,-1.0397,-1.0397,0,-1.0384,-1.0382,-1.0377,-1.0377,-1.038,-1.0377,-1.0379,-1.038,-1.0379,-1.0378,-1.0378,-1.0376,-1.0375,-1.0374,-1.0378,-1.0384,-1.037,-1.0379,-1.0371,-1.0371,-1.0368,-1.0368,-1.0344,-1.0368,-1.0368,-1.0368,-1.0368,0,-1.0367,-1.0362,-1.0369,-1.0366,-1.036,-1.0366,-1.036,-1.0362,-1.0363,-1.0359,-1.0366,-1.0363,-1.0369,-1.0366,-1.0369,-1.0363,-1.0362,-1.0363,-1.0364,-1.0362,-1.0362,-1.0361,-1.0362,-1.0367,-1.0367,-1.0367,-1.0367,0,-1.0348,-1.0353,-1.0348,-1.0351,-1.0352,-1.0347,-1.035,-1.0347,-1.035,-1.0345,-1.0345,-1.0349,-1.0346,-1.035,-1.0347,-1.0349,-1.034,-1.0343,-1.034,-1.034,-1.0332,-1.0332,-1.0306,-1.0303,-1.0329,-1.0329,-1.0329,0,-1.0337,-1.0333,-1.0336,-1.0335,-1.0335,-1.0333,-1.0332,-1.0338,-1.0336,-1.0337,-1.0333,-1.033,-1.0329,-1.0323,-1.0325,-1.0323,-1.0325,-1.0316,-1.0325,-1.0323,-1.0325,-1.0325,-1.0324,-1.0314,-1.0314,-1.0314,-1.0314,0,-1.0317,-1.0319,-1.0318,-1.0317,-1.0315,-1.0315,-1.0315,-1.0313,-1.0319,-1.0316,-1.0313,-1.0312,-1.0309,-1.0306,-1.0304,-1.0305,-1.031,-1.0311,-1.0309,-1.0307,-1.0305,-1.0305,-1.0334,-1.0311,-1.0312,-1.0312,-1.0312,-1.0312,-1.0301,-1.0297,-1.0299,-1.0297,-1.0297,-1.0297,-1.0294,-1.0296,-1.0294,-1.0292,-1.0295,-1.0291,-1.0292,-1.029,-1.029,-1.0286,-1.029,-1.0287,-1.0286,-1.0285,-1.0284,-1.0306,-1.0286,-1.0286,-1.0286,-1.0286,-1.0286,0,-1.028,-1.0282,-1.0279,-1.0279,-1.0277,-1.0283,-1.0282,-1.028,-1.0277,-1.0277,-1.0275,-1.0271,-1.0268,-1.027,-1.0267,-1.0264,-1.0266,-1.0263,-1.0263,-1.0263,-1.0281,-1.0283,-1.0261,-1.0261,-1.0261,-1.0261,-1.0261,-1.0261,-1.0269,-1.0263,-1.0266,-1.026,-1.0261,-1.0258,-1.0257,-1.0256,-1.0256,-1.0252,-1.0249,-1.0251,-1.0252,-1.0249,-1.0246,-1.0247,-1.0245,-1.0241,-1.0242,-1.0259,-1.0262,-1.0264,-1.0266,-1.0241,-1.0241,-1.0224,-1.0224,-1.0224]}]]